Location: Newark
(25.4800°N, 85.7200°E)
Time: 10:29:30
(UTC+00:00)

Vanguard 1 Rocket - Pass Details

Date: 22 August 2019
Orbit: 652 x 4225 km, 34.3° (Epoch: 15 September)

Event Time Altitude Azimuth Distance (km) Brightness Sun altitude
Rises 18:39:46 0° 238° (WSW) 3,580 - -52.5°
Reaches altitude 10° 18:42:40 10° 236° (SW) 2,363 - -52.4°
Maximum altitude 18:47:40 68° 153° (SSE) 711 - -52.2°
Drops below altitude 10° 18:52:02 10° 70° (ENE) 2,073 - -52.0°
Sets 18:54:25 0° 68° (ENE) 3,092 - -51.9°
